SA3PJN-WX Weather Reports


time (UTC)temp
F
wind
direction
speed
knots
gust
knots
rain 1hr
in
rain 24hr
in
rain mn
in
humidity
%
barometer
mb
20260904071650 52 288 2.6 7.0 0.00 0.00 0.00 92 954.9
20260904071150 53 279 2.6 7.8 0.00 0.00 0.00 91 955.1
20260904070650 53 227 2.6 7.8 0.00 0.00 0.00 89 955.0
20260904070150 55 232 1.7 7.8 0.00 0.00 0.00 86 955.1
20260904065650 53 88 1.7 5.2 0.00 0.00 0.00 93 955.2
20260904065150 51 250 1.7 5.2 0.00 0.00 0.00 95 955.2
20260904064650 51 228 1.7 5.2 0.00 0.00 0.00 97 955.2
20260904064150 50 338 1.7 6.1 0.00 0.00 0.00 98 955.3
20260904063650 49 234 2.6 6.1 0.00 0.00 0.00 99 955.2
20260904063150 49 275 2.6 6.1 0.00 0.00 0.00 98 955.3
20260904062650 49 335 2.6 6.1 0.00 0.00 0.00 10 955.3
20260904062150 48 281 2.6 6.1 0.00 0.00 0.00 10 955.3
20260904061650 48 278 2.6 6.1 0.00 0.00 0.00 10 955.3
20260904061150 48 285 3.5 7.0 0.00 0.00 0.00 10 955.3
20260904060650 48 312 3.5 7.0 0.00 0.00 0.00 10 955.3
20260904060150 48 261 3.5 7.0 0.00 0.00 0.00 10 955.3
20260904055650 47 288 2.6 5.2 0.00 0.00 0.00 10 955.3
20260904055150 47 276 2.6 5.2 0.00 0.00 0.00 99 955.4
20260904054649 48 331 2.6 5.2 0.00 0.00 0.00 10 955.4
20260904054149 48 269 2.6 5.2 0.00 0.00 0.00 99 955.4
20260904053649 48 275 2.6 4.3 0.00 0.00 0.00 99 955.3
20260904053149 48 309 1.7 4.3 0.00 0.00 0.00 99 955.4
20260904052649 48 359 0.9 5.2 0.00 0.00 0.00 98 955.4
20260904052149 48 193 0.9 5.2 0.00 0.00 0.00 99 955.4
20260904051649 48 238 0.9 4.3 0.00 0.00 0.00 99 955.4
20260904051149 47 243 1.7 5.2 0.00 0.00 0.00 10 955.5
20260904050649 47 236 1.7 5.2 0.00 0.00 0.00 99 955.4
20260904050149 48 231 1.7 5.2 0.00 0.00 0.00 99 955.5
20260904045649 48 225 0.9 5.2 0.00 0.00 0.00 99 955.5
20260904045149 48 256 1.7 5.2 0.00 0.00 0.00 10 955.6
20260904044649 47 149 1.7 5.2 0.00 0.00 0.00 10 955.6
20260904044149 47 232 2.6 7.0 0.00 0.00 0.00 10 955.6
20260904043649 47 104 1.7 7.0 0.00 0.00 0.00 10 955.6
20260904043148 47 217 1.7 6.1 0.00 0.00 0.00 10 955.4
20260904042648 47 283 2.6 6.1 0.00 0.00 0.00 10 955.5
20260904042148 47 235 2.6 6.1 0.00 0.00 0.00 10 955.5
20260904041648 47 242 2.6 6.1 0.00 0.00 0.00 10 955.5
20260904041148 47 243 2.6 6.1 0.00 0.00 0.00 10 955.5
20260904040648 47 242 2.6 7.8 0.00 0.00 0.00 10 955.5
20260904040148 47 224 2.6 7.8 0.00 0.00 0.00 10 955.5
20260904035648 47 46 1.7 7.8 0.00 0.00 0.00 10 955.4
20260904035148 47 189 1.7 7.0 0.00 0.00 0.00 10 955.5
20260904034648 47 218 0.9 6.1 0.00 0.00 0.00 10 955.6
20260904034148 47 208 0.9 6.1 0.00 0.00 0.00 10 955.6
20260904033648 46 87 0.9 4.3 0.00 0.00 0.00 10 955.5
20260904033147 46 98 1.7 6.1 0.00 0.00 0.00 10 955.5
20260904032647 46 109 1.7 7.0 0.00 0.00 0.00 10 955.5
20260904032147 46 268 1.7 7.0 0.00 0.00 0.00 10 955.5
20260904031647 46 62 0.9 7.0 0.00 0.00 0.00 10 955.5
20260904031147 46 161 1.7 7.8 0.00 0.00 0.00 10 955.5
20260904030647 46 118 1.7 7.8 0.00 0.00 0.00 10 955.7
20260904030147 47 72 0.9 5.2 0.00 0.00 0.00 10 955.7
20260904025647 47 98 0.9 5.2 0.00 0.00 0.00 10 955.7
20260904025147 46 204 1.7 5.2 0.00 0.00 0.00 10 955.7
20260904024647 46 110 1.7 4.3 0.00 0.00 0.00 10 955.7
20260904024147 46 176 0.9 3.5 0.00 0.00 0.00 10 955.7
20260904023647 46 57 0.9 3.5 0.00 0.00 0.00 10 955.8
20260904023147 46 46 0.9 4.3 0.00 0.00 0.00 10 955.8
20260904022647 46 50 0.9 4.3 0.00 0.00 0.00 10 955.9
20260904022146 46 34 0.9 3.5 0.00 0.00 0.00 10 955.7
20260904021646 46 96 0.9 3.5 0.00 0.00 0.00 10 955.8
20260904021146 46 278 0.9 4.3 0.00 0.00 0.00 10 955.8
20260904020647 46 340 0.9 4.3 0.00 0.00 0.00 10 955.9
20260904020147 46 54 1.7 5.2 0.00 0.00 0.00 10 955.9
20260904015647 46 74 1.7 5.2 0.00 0.00 0.00 10 955.9
20260904015146 47 273 1.7 5.2 0.00 0.00 0.00 10 956.0
20260904014646 47 80 1.7 5.2 0.00 0.00 0.00 10 956.0
20260904014146 47 89 0.9 6.1 0.00 0.00 0.00 10 956.2
20260904013646 47 25 0.9 6.1 0.00 0.00 0.00 10 956.2
20260904013146 47 199 0.9 4.3 0.00 0.00 0.00 10 956.1
20260904012646 47 59 0.9 4.3 0.00 0.00 0.00 10 956.2
20260904012146 46 101 0.9 4.3 0.00 0.00 0.00 10 956.3
20260904011646 46 63 0.9 4.3 0.00 0.00 0.00 10 956.3
20260904011146 46 62 0.9 4.3 0.00 0.00 0.00 10 956.2
20260904010646 46 184 0.9 4.3 0.00 0.00 0.00 10 956.3
20260904010146 46 77 0.9 7.0 0.00 0.00 0.00 10 956.3
20260904005646 46 8 1.7 7.0 0.00 0.00 0.00 10 956.3
20260904005146 46 195 1.7 6.1 0.00 0.00 0.00 10 956.3
20260904004646 47 181 1.7 6.1 0.00 0.00 0.00 10 956.2
20260904004146 47 35 1.7 6.1 0.00 0.00 0.00 10 956.4
20260904003646 47 121 1.7 7.0 0.00 0.00 0.00 10 956.4
20260904003145 47 136 1.7 7.0 0.00 0.00 0.00 10 956.5
20260904002645 47 136 1.7 4.3 0.00 0.00 0.00 10 956.5
20260904002145 47 140 1.7 6.1 0.00 0.00 0.00 10 956.4
20260904001645 47 31 1.7 6.1 0.00 0.00 0.00 10 956.5
20260904001145 47 52 1.7 9.6 0.00 0.00 0.00 10 956.4
20260904000645 47 103 1.7 9.6 0.00 0.00 0.00 10 956.5
20260904000145 47 54 1.7 7.0 0.00 0.00 0.00 10 956.5
20260903235645 47 86 1.7 6.1 0.00 0.00 0.00 10 956.5
20260903235145 47 108 1.7 6.1 0.00 0.00 0.00 10 956.4
20260903234645 47 125 1.7 6.1 0.00 0.00 0.00 10 956.5
20260903234145 47 72 2.6 9.6 0.00 0.00 0.00 10 956.6
20260903233645 48 148 2.6 9.6 0.00 0.00 0.00 10 956.6
20260903233145 48 182 2.6 7.8 0.00 0.00 0.00 10 956.7
20260903232644 48 226 1.7 7.0 0.00 0.00 0.00 10 956.7
20260903232144 48 185 1.7 7.0 0.00 0.00 0.00 10 956.6
20260903231644 48 27 1.7 7.0 0.00 0.00 0.00 10 956.7
20260903231144 48 53 1.7 7.0 0.00 0.00 0.00 10 956.8
20260903230644 48 95 1.7 7.0 0.00 0.00 0.00 10 956.8
20260903230144 48 189 0.9 4.3 0.00 0.00 0.00 10 956.8
20260903225644 48 148 0.9 3.5 0.00 0.00 0.00 10 956.8
20260903225144 48 95 0.9 3.5 0.00 0.00 0.00 10 957.0
20260903224644 49 154 0.9 3.5 0.00 0.00 0.00 10 956.9
20260903224144 48 158 0.9 3.5 0.00 0.00 0.00 10 957.0
20260903223644 48 157 0.9 4.3 0.00 0.00 0.00 10 957.0
20260903223144 48 126 1.7 5.2 0.00 0.00 0.00 10 956.9
20260903222644 48 154 1.7 5.2 0.00 0.00 0.00 10 956.9
20260903222144 48 107 0.9 5.2 0.00 0.00 0.00 10 956.9
20260903221644 48 79 0.9 5.2 0.00 0.00 0.00 10 956.9
20260903221144 48 56 0.9 6.1 0.00 0.00 0.00 10 957.0
20260903220644 48 119 1.7 7.8 0.00 0.00 0.00 10 957.1
20260903220144 48 83 1.7 7.8 0.00 0.00 0.00 10 957.0
20260903215643 48 85 1.7 7.0 0.00 0.00 0.00 10 957.0
20260903215143 48 99 1.7 7.0 0.00 0.00 0.00 10 956.8
20260903214643 49 205 2.6 7.8 0.00 0.00 0.00 10 956.8
20260903214143 49 152 2.6 7.8 0.00 0.00 0.00 10 956.7
20260903213643 49 210 1.7 7.8 0.00 0.00 0.00 10 957.0
20260903213143 49 220 1.7 7.8 0.00 0.00 0.00 10 956.9
20260903212643 49 220 1.7 7.0 0.00 0.00 0.00 10 956.9
20260903212143 49 95 1.7 7.0 0.00 0.00 0.00 10 956.9
20260903211643 49 70 1.7 7.8 0.00 0.00 0.00 10 956.8
20260903211143 49 131 1.7 7.8 0.00 0.00 0.00 10 956.8
20260903210643 49 87 1.7 6.1 0.00 0.00 0.00 10 956.8
20260903210143 49 48 1.7 5.2 0.00 0.00 0.00 10 956.9
20260903205643 49 122 1.7 5.2 0.00 0.00 0.00 10 957.0
20260903205143 49 81 1.7 5.2 0.00 0.00 0.00 10 956.9
20260903204642 49 110 1.7 7.0 0.00 0.00 0.00 10 956.9
20260903204142 49 137 1.7 7.8 0.00 0.00 0.00 10 957.0
20260903203642 49 92 1.7 7.8 0.00 0.00 0.00 10 956.9
20260903203142 49 69 1.7 7.0 0.00 0.00 0.00 10 957.0
20260903202642 49 164 2.6 7.0 0.00 0.00 0.00 10 957.0
20260903202142 49 120 2.6 7.8 0.00 0.00 0.00 10 956.9
20260903201642 49 57 1.7 9.6 0.00 0.00 0.00 10 956.9
20260903201142 49 153 1.7 9.6 0.00 0.00 0.00 10 957.0
20260903200642 49 55 1.7 7.0 0.00 0.00 0.00 10 956.9
20260903200142 49 143 1.7 6.1 0.00 0.00 0.00 10 957.0
20260903195642 49 104 1.7 6.1 0.00 0.00 0.00 10 957.0
20260903195142 49 144 1.7 7.0 0.00 0.00 0.00 10 956.9
20260903194642 49 57 1.7 7.8 0.00 0.00 0.00 10 957.1
20260903194142 49 89 1.7 7.8 0.00 0.00 0.00 10 957.1
20260903193642 49 85 0.9 7.8 0.00 0.00 0.00 10 957.1
20260903193142 49 125 0.9 4.3 0.00 0.00 0.00 10 957.1
20260903192612 50 71 0.9 6.1 0.00 0.00 0.00 10 957.0
20260903192112 49 108 1.7 7.0 0.00 0.00 0.00 10 957.0
20260903191611 50 162 2.6 7.8 0.00 0.00 0.00 10 957.0
20260903191111 50 9 2.6 7.8 0.00 0.00 0.00 10 957.0
20260903190611 50 237 2.6 7.8 0.00 0.00 0.00 10 957.1
20260903190111 50 130 2.6 7.8 0.00 0.00 0.00 10 957.1
20260903185611 50 215 2.6 7.8 0.00 0.00 0.00 10 957.1
20260903185111 50 139 2.6 7.8 0.00 0.00 0.00 10 957.1
20260903184611 50 79 2.6 9.6 0.00 0.00 0.00 10 957.1
20260903184111 50 100 2.6 9.6 0.00 0.00 0.00 10 957.1
20260903183611 50 164 1.7 9.6 0.00 0.00 0.00 10 957.1
20260903183111 50 37 1.7 9.6 0.00 0.00 0.00 10 957.1
20260903182611 50 128 1.7 7.0 0.00 0.00 0.00 10 956.9
20260903182111 51 178 1.7 7.0 0.00 0.00 0.00 10 957.1
20260903181611 51 91 1.7 6.1 0.00 0.00 0.00 10 957.1
20260903181110 51 86 1.7 6.1 0.00 0.00 0.00 10 957.0
20260903180610 51 119 1.7 8.7 0.00 0.00 0.00 10 957.1
20260903180110 50 132 2.6 8.7 0.00 0.00 0.00 10 957.1
20260903175610 51 103 2.6 8.7 0.00 0.00 0.00 10 957.1
20260903175110 50 204 2.6 7.8 0.00 0.00 0.00 10 957.1
20260903174610 51 112 1.7 6.1 0.00 0.00 0.00 10 957.1
20260903174110 50 137 2.6 7.0 0.00 0.00 0.00 10 957.1
20260903173610 51 80 2.6 9.6 0.00 0.00 0.00 10 957.0
20260903173110 51 101 1.7 9.6 0.00 0.00 0.00 10 957.0
20260903172610 51 261 1.7 7.8 0.00 0.00 0.00 10 957.1
20260903172110 51 49 1.7 7.8 0.00 0.00 0.00 10 957.1
20260903171610 51 141 1.7 7.8 0.00 0.00 0.00 10 957.0
20260903171110 51 70 1.7 6.1 0.00 0.00 0.00 10 957.0
20260903170610 51 187 1.7 6.1 0.00 0.00 0.00 99 957.0
20260903170110 50 23 1.7 5.2 0.00 0.00 0.00 99 957.0
20260903165610 51 135 2.6 7.8 0.00 0.00 0.00 99 957.0
20260903165110 51 273 2.6 7.8 0.00 0.00 0.00 99 957.1
20260903164609 51 240 2.6 8.7 0.00 0.00 0.00 98 957.0
20260903164109 51 108 2.6 8.7 0.00 0.00 0.00 98 957.1
20260903163609 51 100 2.6 7.8 0.00 0.00 0.00 98 957.0
20260903163109 51 84 2.6 9.6 0.00 0.00 0.00 98 956.9
20260903162609 51 114 2.6 9.6 0.00 0.00 0.00 98 957.0
20260903162109 51 116 2.6 9.6 0.00 0.00 0.00 97 957.0
20260903161609 51 178 2.6 9.6 0.00 0.00 0.00 96 957.0
20260903161109 51 157 1.7 9.6 0.00 0.00 0.00 96 957.0
20260903160609 51 91 1.7 9.6 0.00 0.00 0.00 97 957.0
20260903160039 51 115 2.6 7.8 0.00 0.00 0.00 97 957.1
20260903155539 51 115 2.6 7.8 0.00 0.00 0.00 97 957.1
20260903155039 51 107 2.6 9.6 0.00 0.00 0.00 97 957.2
20260903154539 51 179 2.6 9.6 0.00 0.00 0.00 96 957.1
20260903154039 51 143 2.6 7.8 0.00 0.00 0.00 95 957.1
20260903153539 51 107 2.6 7.8 0.00 0.00 0.00 95 957.2
20260903153039 51 181 2.6 7.8 0.00 0.00 0.00 95 957.1
20260903152538 51 2 1.7 9.6 0.00 0.00 0.00 95 957.2
20260903152038 51 110 2.6 9.6 0.00 0.00 0.00 97 957.2
20260903151538 51 110 2.6 10.4 0.00 0.00 0.00 97 957.3
20260903151038 51 150 2.6 10.4 0.00 0.00 0.00 97 957.3
20260903150538 51 75 2.6 9.6 0.00 0.00 0.00 97 957.2
20260903150038 51 91 2.6 7.0 0.00 0.00 0.00 97 957.2
20260903145538 51 124 2.6 7.8 0.00 0.00 0.00 97 957.2
20260903145038 50 188 1.7 7.8 0.00 0.00 0.00 97 957.3
20260903144538 51 130 1.7 7.0 0.00 0.00 0.00 96 957.3
20260903144038 50 65 2.6 7.8 0.00 0.00 0.00 95 957.4
20260903143538 50 147 2.6 8.7 0.00 0.00 0.00 94 957.4
20260903143038 50 132 2.6 10.4 0.00 0.00 0.00 94 957.5
20260903142538 50 112 2.6 10.4 0.00 0.00 0.00 93 957.5
20260903142037 50 185 2.6 9.6 0.00 0.00 0.00 92 957.6
20260903141537 50 154 2.6 8.7 0.00 0.00 0.00 93 957.6
20260903141037 50 136 2.6 11.3 0.00 0.00 0.00 91 957.5
20260903140537 50 131 2.6 11.3 0.00 0.00 0.00 91 957.6
20260903140037 50 132 2.6 10.4 0.00 0.00 0.00 89 957.6
20260903135537 50 130 2.6 7.8 0.00 0.00 0.00 89 957.7
20260903135037 50 82 2.6 9.6 0.00 0.00 0.00 89 957.7
20260903134537 50 109 2.6 9.6 0.00 0.00 0.00 90 957.7
20260903134038 50 108 2.6 10.4 0.00 0.00 0.00 90 957.8
20260903133537 51 154 2.6 11.3 0.00 0.00 0.00 88 957.7
20260903133037 51 138 2.6 11.3 0.00 0.00 0.00 86 957.6
20260903132537 51 142 2.6 9.6 0.00 0.00 0.00 87 957.7
20260903132037 51 116 3.5 9.6 0.00 0.00 0.00 86 957.8
20260903131537 51 171 3.5 15.6 0.00 0.00 0.00 85 957.7
20260903131037 51 143 3.5 15.6 0.00 0.00 0.00 81 957.7
20260903130537 51 145 3.5 11.3 0.00 0.00 0.00 82 957.7
20260903130037 51 68 3.5 13.9 0.00 0.00 0.00 84 957.8
20260903125537 52 121 3.5 13.9 0.00 0.00 0.00 84 957.6
20260903125037 52 134 3.5 9.6 0.00 0.00 0.00 82 958.0
20260903124536 53 143 2.6 9.6 0.00 0.00 0.00 81 957.7
20260903124036 53 165 2.6 13.0 0.00 0.00 0.00 81 957.7
20260903123536 53 89 3.5 13.9 0.00 0.00 0.00 82 957.7
20260903123036 53 109 3.5 13.9 0.00 0.00 0.00 82 957.8
20260903122536 53 101 3.5 13.9 0.00 0.00 0.00 80 957.8
20260903122036 53 114 3.5 12.2 0.00 0.00 0.00 80 957.9
20260903121536 53 106 3.5 12.2 0.00 0.00 0.00 82 957.8
20260903121036 52 61 3.5 18.2 0.00 0.00 0.00 87 957.8
20260903120536 52 86 4.3 18.2 0.00 0.00 0.00 84 957.8
20260903120036 52 336 4.3 18.2 0.00 0.00 0.00 80 957.6
20260903115536 53 146 4.3 13.9 0.00 0.00 0.00 82 957.8
20260903115036 52 196 4.3 13.9 0.00 0.00 0.00 79 957.8
20260903114536 52 88 4.3 11.3 0.00 0.00 0.00 81 957.7
20260903114036 52 112 3.5 11.3 0.00 0.00 0.00 81 957.8
20260903113536 52 127 4.3 12.2 0.00 0.00 0.00 79 957.7
20260903113035 52 99 4.3 20.9 0.00 0.00 0.00 78 957.9
20260903112535 52 41 4.3 20.9 0.00 0.00 0.00 76 957.8
20260903112035 53 124 4.3 13.0 0.00 0.00 0.00 76 957.7
20260903111535 54 105 4.3 13.0 0.00 0.00 0.00 74 957.7
20260903111035 53 152 4.3 13.0 0.00 0.00 0.00 78 957.6
20260903110535 54 89 4.3 12.2 0.00 0.00 0.00 80 957.7
20260903110035 53 66 5.2 17.4 0.00 0.00 0.00 82 957.7
20260903105535 52 175 5.2 17.4 0.00 0.00 0.00 82 957.7
20260903105035 53 203 4.3 17.4 0.00 0.00 0.00 81 957.5
20260903104535 53 204 5.2 20.0 0.00 0.00 0.00 80 957.6
20260903104035 53 130 6.1 20.0 0.00 0.00 0.00 80 957.6
20260903103535 53 220 5.2 20.0 0.00 0.00 0.00 78 957.6
20260903103035 55 202 4.3 14.8 0.00 0.00 0.00 76 957.7
20260903102535 56 127 4.3 21.7 0.00 0.00 0.00 73 957.6
20260903102035 56 105 4.3 21.7 0.00 0.00 0.00 71 957.4
20260903101534 56 63 4.3 13.0 0.00 0.00 0.00 70 957.4
20260903101034 58 108 3.5 12.2 0.00 0.00 0.00 67 957.4
20260903100534 60 160 3.5 10.4 0.00 0.00 0.00 66 957.4
20260903100034 60 128 2.6 10.4 0.00 0.00 0.00 68 957.4
20260903095534 60 105 2.6 10.4 0.00 0.00 0.00 73 957.6
20260903095034 57 131 2.6 10.4 0.00 0.00 0.00 75 957.6
20260903094534 56 123 2.6 14.8 0.00 0.00 0.00 76 957.6
20260903094034 54 58 3.5 14.8 0.00 0.00 0.00 77 957.6
20260903093534 54 89 3.5 13.9 0.00 0.00 0.00 78 957.6
20260903093034 55 51 3.5 13.9 0.00 0.00 0.00 80 957.6
20260903092534 55 121 3.5 11.3 0.00 0.00 0.00 77 957.5
20260903092034 55 115 4.3 13.0 0.00 0.00 0.00 78 957.5
20260903091534 54 102 4.3 13.0 0.00 0.00 0.00 77 957.5
20260903091033 55 190 3.5 12.2 0.00 0.00 0.00 78 957.6
20260903090533 54 324 3.5 10.4 0.00 0.00 0.00 79 957.6
20260903090033 53 221 3.5 10.4 0.00 0.00 0.00 80 957.5
20260903085533 53 161 3.5 12.2 0.00 0.00 0.00 80 957.5
20260903085033 54 116 3.5 12.2 0.00 0.00 0.00 80 957.4
20260903084533 55 244 3.5 13.0 0.00 0.00 0.00 79 957.6
20260903084033 55 116 4.3 15.6 0.00 0.00 0.00 82 957.5
20260903083533 53 106 4.3 15.6 0.00 0.00 0.00 82 957.4
20260903083033 54 136 3.5 12.2 0.00 0.00 0.00 82 957.4
20260903082533 53 163 3.5 13.9 0.00 0.00 0.00 82 957.4
20260903082033 53 208 3.5 13.9 0.00 0.00 0.00 85 957.5
20260903081533 52 177 3.5 13.9 0.00 0.00 0.00 85 957.4
20260903081033 52 127 3.5 9.6 0.00 0.00 0.00 85 957.4
20260903080533 52 82 3.5 9.6 0.00 0.00 0.00 85 957.4
20260903080033 52 70 3.5 9.6 0.00 0.00 0.00 86 957.5
20260903075533 52 100 2.6 12.2 0.00 0.00 0.00 86 957.4
20260903075033 52 77 2.6 12.2 0.00 0.00 0.00 86 957.4
20260903074533 53 210 2.6 8.7 0.00 0.00 0.00 86 957.5
20260903074032 52 168 2.6 9.6 0.00 0.00 0.00 87 957.4
20260903073532 53 152 2.6 9.6 0.00 0.00 0.00 86 957.4
20260903073032 53 137 2.6 7.0 0.00 0.00 0.00 88 957.4
20260903072532 51 95 2.6 8.7 0.00 0.00 0.00 91 957.5
20260903072032 50 110 2.6 8.7 0.00 0.00 0.00 92 957.6